FW8660 Weather Reports


time (UTC)temp
C
wind
direction
speed
KPH
gust
KPH
rain 1hr
cm
rain 24hr
cm
rain mn
cm
humidity
%
barometer
mb
20260505041536 14 248 8.0 12.9 0.00 0.00 0.00 77 1011.9
20260505040027 14 248 1.6 11.3 0.00 0.00 0.00 81 1011.9
20260505034530 14 254 1.6 8.0 0.00 0.00 0.00 83 1011.9
20260505033033 14 259 1.6 11.3 0.00 0.00 0.00 84 1011.9
20260505031527 14 242 3.2 8.0 0.00 0.00 0.00 84 1011.9
20260505030027 14 0 1.6 6.4 0.00 0.00 0.00 85 1011.9
20260505024528 14 0 0.0 3.2 0.00 0.00 0.00 85 1012.0
20260505023028 14 0 0.0 0.0 0.00 0.00 0.00 85 1012.0
20260505021531 15 0 0.0 4.8 0.00 0.00 0.00 85 1012.0
20260505020035 15 331 0.0 4.8 0.00 0.00 0.00 85 1012.0
20260505014535 15 0 0.0 1.6 0.00 0.00 0.00 85 1012.1
20260505013037 15 0 0.0 0.0 0.00 0.00 0.00 84 1012.1
20260505011535 15 0 1.6 3.2 0.00 0.00 0.00 84 1012.2
20260505010028 16 0 0.0 3.2 0.00 0.00 0.00 84 1012.4
20260505004541 16 105 1.6 4.8 0.00 0.00 0.00 84 1012.5
20260505003049 16 105 3.2 6.4 0.00 0.00 0.00 84 1012.7
20260505001528 16 113 1.6 4.8 0.00 0.00 0.00 83 1012.7
20260505000034 16 44 3.2 9.7 0.00 0.00 0.00 83 1012.7
20260504234530 16 0 0.0 3.2 0.00 0.00 0.00 81 1012.7
20260504233029 16 103 3.2 4.8 0.00 0.00 0.00 81 1012.7
20260504231527 16 103 1.6 4.8 0.00 0.00 0.00 81 1012.7
20260504230027 17 0 0.0 6.4 0.00 0.00 0.00 80 1012.7
20260504224530 17 0 0.0 4.8 0.00 0.00 0.00 80 1012.7
20260504223032 17 0 0.0 4.8 0.00 0.00 0.00 80 1012.7
20260504221529 17 360 3.2 8.0 0.00 0.00 0.00 80 1012.5
20260504220032 17 115 3.2 12.9 0.00 0.00 0.00 79 1012.4
20260504214529 18 80 8.0 14.5 0.00 0.00 0.00 78 1012.2
20260504213030 18 96 12.9 20.9 0.00 0.00 0.00 78 1012.3
20260504211536 18 72 12.9 25.7 0.00 0.00 0.00 77 1012.3
20260504210028 18 92 12.9 24.1 0.00 0.00 0.00 76 1012.2
20260504204529 18 71 16.1 25.7 0.00 0.00 0.00 75 1012.1
20260504203028 19 63 16.1 24.1 0.00 0.00 0.00 73 1011.8
20260504201530 20 65 12.9 20.9 0.00 0.00 0.00 70 1011.6
20260504200030 20 52 3.2 8.0 0.00 0.00 0.00 61 1011.2
20260504194528 21 0 0.0 3.2 0.00 0.00 0.00 58 1010.9
20260504193027 21 0 0.0 0.0 0.00 0.00 0.00 56 1010.7
20260504191528 22 0 0.0 4.8 0.00 0.00 0.00 55 1010.6
20260504190028 22 0 0.0 0.0 0.00 0.00 0.00 55 1010.5
20260504184542 22 0 1.6 8.0 0.00 0.00 0.00 54 1010.4
20260504183030 23 0 1.6 11.3 0.00 0.00 0.00 53 1010.3
20260504181534 23 177 8.0 12.9 0.00 0.00 0.00 52 1010.2
20260504180030 23 142 4.8 8.0 0.00 0.00 0.00 51 1010.1
20260504174528 24 161 1.6 6.4 0.00 0.00 0.00 50 1010.2
20260504173028 24 153 0.0 11.3 0.00 0.00 0.00 49 1010.2
20260504171530 24 175 1.6 12.9 0.00 0.00 0.00 48 1010.1
20260504081527 18 267 4.8 9.7 0.00 0.00 0.00 85 1013.3